Location: Newark
(48.1333°N, 17.1000°E)
Time: 02:13:59
(UTC+00:00)

ISS - Visible Passes

Search period start: 26 January 2020 00:00
Search period end: 05 February 2020 00:00
Orbit: 416 x 423 km, 51.6° (Epoch: 26 January)

Date Brightness Start Highest point End Pass type
(mag) Time Alt. Az. Time Alt. Az. Time Alt. Az.
26 Jan -3.5 17:28:03 10° W 17:31:24 58° NNW 17:31:57 50° NNE visible
27 Jan -3.7 16:40:28 10° WSW 16:43:51 74° NNW 16:46:24 16° ENE visible
27 Jan -1.6 18:17:41 10° WNW 18:19:22 25° WNW 18:19:22 25° WNW visible
28 Jan -3.2 17:30:04 10° W 17:33:20 45° N 17:33:48 41° NNE visible
29 Jan -3.2 16:42:25 10° W 16:45:43 49° N 16:48:13 16° ENE visible
29 Jan -1.6 18:19:34 10° WNW 18:21:11 25° NW 18:21:11 25° NW visible
30 Jan -3.3 17:31:58 10° WNW 17:35:15 45° N 17:35:36 43° NNE visible
31 Jan -3.1 16:44:20 10° WNW 16:47:36 43° N 16:50:03 16° ENE visible
31 Jan -1.7 18:21:17 10° WNW 18:23:01 28° WNW 18:23:01 28° WNW visible
01 Feb -3.7 17:33:43 10° WNW 17:37:05 61° NNE 17:37:29 55° NE visible
02 Feb -3.4 16:46:08 10° WNW 16:49:26 51° N 16:52:00 15° E visible
02 Feb -1.9 18:22:59 10° WNW 18:24:58 31° W 18:24:58 31° W visible
03 Feb -3.7 17:35:23 10° WNW 17:38:45 78° SSW 17:39:35 48° SE visible
04 Feb -3.8 16:47:46 10° WNW 16:51:09 78° NNE 16:54:17 12° ESE visible
04 Feb -1.6 18:24:55 10° W 18:27:16 23° SW 18:27:16 23° SW visible
